DK4ARL Weather Reports


time (UTC)temp
F
wind
direction
speed
knots
gust
knots
rain 1hr
in
rain 24hr
in
rain mn
in
humidity
%
barometer
mb
20260507054813 49 0.0 0.0 0.00 0.23 0.00 975.1
20260507053335 49 0.0 0.0 0.00 0.23 0.00 975.0
20260507051853 49 0.0 0.0 0.02 0.23 0.00 974.8
20260507044939 49 0.0 0.0 0.01 0.22 0.00 974.4
20260507043509 49 0.0 0.0 0.00 0.21 0.00 974.3
20260507042027 49 0.0 0.0 0.02 0.21 0.00 974.1
20260507040549 50 0.0 0.0 0.02 0.21 0.00 974.0
20260507035110 50 0.0 0.0 0.01 0.20 0.00 973.9
20260507033633 50 0.0 0.0 0.00 0.19 0.00 973.8
20260507032158 50 0.0 0.0 0.02 0.18 0.00 973.7
20260507030721 50 0.0 0.0 0.02 0.18 0.00 973.6
20260507025243 50 0.0 0.0 0.01 0.17 0.00 973.6
20260507023806 51 0.0 0.0 0.00 0.16 0.00 973.5
20260507022326 50 0.0 0.0 0.02 0.16 0.00 973.5
20260507020848 50 0.0 0.0 0.01 0.15 0.00 973.5
20260507015410 50 0.0 0.0 0.01 0.15 0.00 973.4
20260507013933 50 0.0 0.0 0.00 0.14 0.00 973.4
20260507012500 50 0.0 0.0 0.00 0.14 0.00 973.4
20260507011021 50 0.0 0.0 0.00 0.14 0.00 973.4
20260507005543 50 0.0 0.0 0.00 0.14 0.00 973.4
20260507004104 51 0.0 0.0 0.00 0.14 0.00 973.4
20260506232752 52 0.0 0.0 0.00 0.14 0.00 973.3
20260506231310 52 0.0 0.0 0.00 0.14 0.00 973.2
20260506224352 52 0.0 0.0 0.00 0.13 0.00 973.0
20260506213038 52 0.0 0.0 0.04 0.09 0.00 972.6
20260506204627 53 0.0 0.0 0.00 0.06 0.00 972.2
20260506203147 53 0.0 0.0 0.03 0.05 0.00 972.1
20260506201706 54 0.0 0.0 0.02 0.04 0.00 972.0
20260506193253 55 0.0 0.0 0.00 0.02 0.00 971.4
20260506191819 55 0.0 0.0 0.00 0.01 0.00 971.2
20260506184845 55 0.0 0.0 0.00 0.01 0.00 970.9
20260506180427 55 0.0 0.0 0.00 0.00 0.00 970.6
20260506170521 55 0.0 0.0 0.00 0.02 0.00 970.4
20260506163542 57 0.0 0.0 0.00 0.02 0.00 970.2
20260506162047 57 0.0 0.0 0.00 0.02 0.00 970.1
20260506153612 57 0.0 0.0 0.00 0.02 0.00 969.8
20260506150623 57 0.0 0.0 0.00 0.03 0.00 969.6
20260506145127 58 0.0 0.0 0.00 0.02 0.00 969.4
20260506140626 65 0.0 0.0 0.00 0.03 0.00 969.0
20260506133620 65 0.0 0.0 0.00 0.03 0.00 969.0
20260506132119 67 0.0 0.0 0.00 0.07 0.00 968.9
20260506130608 69 0.0 0.0 0.00 0.07 0.00 969.0
20260506123550 71 0.0 0.0 0.00 0.07 0.00 969.1
20260506122040 69 0.0 0.0 0.00 0.09 0.00 969.2
20260506120528 70 0.0 0.0 0.00 0.09 0.00 969.2
20260506111945 72 0.0 0.0 0.00 0.09 0.00 969.5
20260506103403 73 0.0 0.0 0.00 0.09 0.00 969.8
20260506100357 68 0.0 0.0 0.00 0.09 0.00 969.9
20260506091827 65 0.0 0.0 0.00 0.09 0.00 970.0
20260506090322 70 0.0 0.0 0.00 0.09 0.00 970.1
20260506084819 69 0.0 0.0 0.00 0.09 0.00 970.1
20260506083319 69 0.0 0.0 0.00 0.09 0.00 970.1
20260506081821 62 0.0 0.0 0.00 0.09 0.00 970.1
20260506080325 63 0.0 0.0 0.00 0.09 0.00 970.1
20260506073341 65 0.0 0.0 0.00 0.09 0.00 970.1
20260506062000 55 0.0 0.0 0.00 0.09 0.00 970.3